﻿_id,日時,平均風速(m/s),平均風向,最大瞬間風速(m/s),最大風速時風向,気温(℃),湿度(%),10分間移動積算雨量(mm),1時間移動積算雨量(mm),日雨量(mm),累計雨量(mm)
1,2019-10-14T00:00:00,1,北西,3.7,西北西,16.6,70.3,0,0,0.5,60
2,2019-10-14T00:01:00,1.1,北西,3.7,西北西,16.6,69.9,0,0,0,60
3,2019-10-14T00:02:00,1.1,北西,3.7,西北西,16.6,69.8,0,0,0,60
4,2019-10-14T00:03:00,1,北西,3.7,西北西,16.6,70.5,0,0,0,60
5,2019-10-14T00:04:00,1,西北西,3.7,西北西,16.6,70.6,0,0,0,60
6,2019-10-14T00:05:00,1.1,北西,3.7,西北西,16.5,70.7,0,0,0,60
7,2019-10-14T00:06:00,1,北西,3.2,北西,16.6,70.1,0,0,0,60
8,2019-10-14T00:07:00,0.9,北西,3,西北西,16.6,70.2,0,0,0,60
9,2019-10-14T00:08:00,0.9,北西,3,西北西,16.5,70.3,0,0,0,60
10,2019-10-14T00:09:00,0.8,北西,3,西北西,16.5,70.5,0,0,0,60
11,2019-10-14T00:10:00,0.8,北西,3,西北西,16.5,70.8,0,0,0,60
12,2019-10-14T00:11:00,0.7,北西,2.2,東南東,16.5,70.4,0,0,0,60
13,2019-10-14T00:12:00,0.7,北西,2.2,東南東,16.6,70,0,0,0,60
14,2019-10-14T00:13:00,0.6,北西,1.9,西南西,16.6,70.4,0,0,0,60
15,2019-10-14T00:14:00,0.6,北西,1.9,西南西,16.6,70.7,0,0,0,60
16,2019-10-14T00:15:00,0.6,北西,1.9,西南西,16.5,70.7,0,0,0,60
17,2019-10-14T00:16:00,0.8,北西,3.2,北北西,16.6,69.8,0,0,0,0
18,2019-10-14T00:17:00,0.8,北西,3.2,北北西,16.6,69.4,0,0,0,0
19,2019-10-14T00:18:00,1,北西,3.2,北北西,16.6,69.5,0,0,0,0
20,2019-10-14T00:19:00,1,北西,3.2,北北西,16.6,69.9,0,0,0,0
21,2019-10-14T00:20:00,1,北西,3.2,北北西,16.5,69.9,0,0,0,0
22,2019-10-14T00:21:00,1,北西,3.2,北北西,16.6,69.8,0,0,0,0
23,2019-10-14T00:22:00,1.2,北西,3.3,北西,16.6,69.7,0,0,0,0
24,2019-10-14T00:23:00,1.3,北西,3.3,北西,16.6,69.6,0,0,0,0
25,2019-10-14T00:24:00,1.3,北西,3.3,北西,16.5,70.7,0,0,0,0
26,2019-10-14T00:25:00,1.2,北西,3.3,北西,16.4,71.9,0,0,0,0
27,2019-10-14T00:26:00,1.1,北西,3.3,北西,16.4,71.9,0,0,0,0
28,2019-10-14T00:27:00,1,北西,3.3,北西,16.5,71.3,0,0,0,0
29,2019-10-14T00:28:00,0.8,北北西,3.3,北西,16.5,71.2,0,0,0,0
30,2019-10-14T00:29:00,0.8,北北西,3.3,北西,16.5,72.2,0,0,0,0
31,2019-10-14T00:30:00,0.8,北,3.3,北西,16.5,71.8,0,0,0,0
32,2019-10-14T00:31:00,0.8,北,3.3,北西,16.5,72.2,0,0,0,0
33,2019-10-14T00:32:00,0.7,北,3.1,西,16.5,71.5,0,0,0,0
34,2019-10-14T00:33:00,0.7,北,3.2,西北西,16.5,72,0,0,0,0
35,2019-10-14T00:34:00,0.8,北,3.2,西北西,16.5,70.8,0,0,0,0
36,2019-10-14T00:35:00,0.8,北,3.2,西北西,16.5,71.2,0,0,0,0
37,2019-10-14T00:36:00,0.8,北,3.2,西北西,16.6,71.5,0,0,0,0
38,2019-10-14T00:37:00,0.8,北,3.2,西北西,16.6,71.7,0,0,0,0
39,2019-10-14T00:38:00,0.8,北,3.2,西北西,16.5,72.1,0,0,0,0
40,2019-10-14T00:39:00,0.8,北北西,3.2,西北西,16.5,71.6,0,0,0,0
41,2019-10-14T00:40:00,0.8,北北西,3.2,西北西,16.5,70.7,0,0,0,0
42,2019-10-14T00:41:00,0.8,北北西,3.2,西北西,16.5,70.9,0,0,0,0
43,2019-10-14T00:42:00,0.8,北北西,3.2,西北西,16.6,70.9,0,0,0,0
44,2019-10-14T00:43:00,0.7,北北西,2.7,北北西,16.6,70.3,0,0,0,0
45,2019-10-14T00:44:00,0.7,北北西,2.7,北北西,16.6,70.3,0,0,0,0
46,2019-10-14T00:45:00,0.8,北北西,3.1,西北西,16.6,70,0,0,0,0
47,2019-10-14T00:46:00,0.9,北北西,3.1,西北西,16.6,70.5,0,0,0,0
48,2019-10-14T00:47:00,0.9,北北西,3.1,西北西,16.6,70.6,0,0,0,0
49,2019-10-14T00:48:00,0.9,北北西,3.1,西北西,16.6,71.3,0,0,0,0
50,2019-10-14T00:49:00,1,北北西,3.1,西北西,16.6,71,0,0,0,0
51,2019-10-14T00:50:00,1,北北西,3.1,西北西,16.5,70.6,0,0,0,0
52,2019-10-14T00:51:00,1.1,北北西,3.3,北西,16.5,70.7,0,0,0,0
53,2019-10-14T00:52:00,1.1,北北西,3.6,西,16.5,70.2,0,0,0,0
54,2019-10-14T00:53:00,1.1,北西,3.6,西,16.6,70.1,0,0,0,0
55,2019-10-14T00:54:00,1.3,北西,3.6,西,16.6,70.2,0,0,0,0
56,2019-10-14T00:55:00,1.1,北北西,3.6,西,16.5,71,0,0,0,0
57,2019-10-14T00:56:00,1,北北西,3.6,西,16.5,71.4,0,0,0,0
58,2019-10-14T00:57:00,1,北西,3.6,西,16.5,70.9,0,0,0,0
59,2019-10-14T00:58:00,1.1,北西,3.6,西,16.5,70.7,0,0,0,0
60,2019-10-14T00:59:00,1.2,北西,4.7,北北西,16.6,70.3,0,0,0,0
61,2019-10-14T01:00:00,1.2,北西,4.7,北北西,16.6,70.3,0,0,0,0
62,2019-10-14T01:01:00,1.1,北西,4.7,北北西,16.5,71,0,0,0,0
63,2019-10-14T01:02:00,1.1,北北西,4.7,北北西,16.5,71.9,0,0,0,0
64,2019-10-14T01:03:00,1,北北西,4.7,北北西,16.5,72.4,0,0,0,0
65,2019-10-14T01:04:00,0.8,北北西,4.7,北北西,16.4,72.8,0,0,0,0
66,2019-10-14T01:05:00,0.8,北北西,4.7,北北西,16.5,73,0,0,0,0
67,2019-10-14T01:06:00,0.8,北北西,4.7,北北西,16.4,73,0,0,0,0
68,2019-10-14T01:07:00,0.7,北北西,4.7,北北西,16.5,73.2,0,0,0,0
69,2019-10-14T01:08:00,0.6,北,4.7,北北西,16.5,72.8,0,0,0,0
70,2019-10-14T01:09:00,0.5,北,2.7,西北西,16.5,72.6,0,0,0,0
71,2019-10-14T01:10:00,0.4,北,2.1,北西,16.5,72.3,0,0,0,0
72,2019-10-14T01:11:00,0.4,北,2.2,西北西,16.5,71.5,0,0,0,0
73,2019-10-14T01:12:00,0.3,北北東,2.2,西北西,16.6,71.6,0,0,0,0
74,2019-10-14T01:13:00,0.3,北北東,2.2,西北西,16.5,72,0,0,0,0
75,2019-10-14T01:14:00,0.3,北北東,2.2,西北西,16.6,72.2,0,0,0,0
76,2019-10-14T01:15:00,0.4,北東,2.2,西北西,16.5,72.5,0,0,0,0
77,2019-10-14T01:16:00,0.5,北東,2.2,西北西,16.6,72.8,0,0,0,0
78,2019-10-14T01:17:00,0.4,北東,2.2,西北西,16.6,72.8,0,0,0,0
79,2019-10-14T01:18:00,0.4,北東,2.2,西北西,16.5,72.7,0,0,0,0
80,2019-10-14T01:19:00,0.4,北東,2.2,西北西,16.5,72.5,0,0,0,0
81,2019-10-14T01:20:00,0.5,北東,2.2,西北西,16.5,72.3,0,0,0,0
82,2019-10-14T01:21:00,0.5,北東,1.5,西南西,16.5,72.1,0,0,0,0
83,2019-10-14T01:22:00,0.5,北東,1.7,北,16.6,71,0,0,0,0
84,2019-10-14T01:23:00,0.6,北北東,2,北西,16.6,71.3,0,0,0,0
85,2019-10-14T01:24:00,0.7,北北東,2,北西,16.6,71.3,0,0,0,0
86,2019-10-14T01:25:00,0.7,北,2,北西,16.5,72.2,0,0,0,0
87,2019-10-14T01:26:00,0.7,北,2,北西,16.4,73.5,0,0,0,0
88,2019-10-14T01:27:00,0.7,北,2,北西,16.4,73.4,0,0,0,0
89,2019-10-14T01:28:00,0.8,北,2,北西,16.4,74.5,0,0,0,0
90,2019-10-14T01:29:00,0.8,北,2,北西,16.3,75.6,0,0,0,0
91,2019-10-14T01:30:00,0.8,北北東,2,北西,16.4,76.2,0,0,0,0
92,2019-10-14T01:31:00,0.8,北北東,2,北西,16.3,76.5,0,0,0,0
93,2019-10-14T01:32:00,0.7,北北東,2,北西,16.3,76.3,0,0,0,0
94,2019-10-14T01:33:00,0.8,北北東,1.8,北西,16.3,75.7,0,0,0,0
95,2019-10-14T01:34:00,0.7,北東,1.5,北北西,16.4,76.3,0,0,0,0
96,2019-10-14T01:35:00,0.7,北東,1.5,北北西,16.4,76.8,0,0,0,0
97,2019-10-14T01:36:00,0.6,北東,1.3,北東,16.3,77,0,0,0,0
98,2019-10-14T01:37:00,0.6,北東,1.3,北東,16.3,76,0,0,0,0
99,2019-10-14T01:38:00,0.6,北東,1.3,北東,16.3,73.3,0,0,0,0
100,2019-10-14T01:39:00,0.6,北東,1.2,北北東,16.4,74.1,0,0,0,0
101,2019-10-14T01:40:00,0.5,北北東,1.2,北北東,16.5,75,0,0,0,0
102,2019-10-14T01:41:00,0.5,北北東,1.2,北北東,16.5,75.3,0,0,0,0
103,2019-10-14T01:42:00,0.5,北北東,1.2,北北東,16.5,75.2,0,0,0,0
104,2019-10-14T01:43:00,0.5,北北東,1.2,北北東,16.4,75.1,0,0,0,0
105,2019-10-14T01:44:00,0.4,北東,1.2,北北東,16.5,75.5,0,0,0,0
106,2019-10-14T01:45:00,0.4,北東,1.2,北北東,16.4,76.2,0,0,0,0
107,2019-10-14T01:46:00,0.4,北東,1.2,北北東,16.3,77,0,0,0,0
108,2019-10-14T01:47:00,0.4,北東,1.2,北北東,16.3,77.6,0,0,0,0
109,2019-10-14T01:48:00,0.3,北東,1,南南東,16.4,78,0,0,0,0
110,2019-10-14T01:49:00,0.4,北東,1,南南東,16.3,78.1,0,0,0,0
111,2019-10-14T01:50:00,0.4,北東,1.2,北東,16.2,78.3,0,0,0,0
112,2019-10-14T01:51:00,0.5,東北東,1.4,東,16.2,78.3,0,0,0,0
113,2019-10-14T01:52:00,0.5,東北東,1.4,東,16.2,78.4,0,0,0,0
114,2019-10-14T01:53:00,0.5,北東,1.4,東,16.3,78.9,0,0,0,0
115,2019-10-14T01:54:00,0.5,北東,1.4,東,16.2,79,0,0,0,0
116,2019-10-14T01:55:00,0.6,北東,1.4,東,16.2,79,0,0,0,0
117,2019-10-14T01:56:00,0.6,北東,1.4,東,16.1,79.6,0,0,0,0
118,2019-10-14T01:57:00,0.6,北東,1.4,東,16.1,80.6,0,0,0,0
119,2019-10-14T01:58:00,0.6,北東,1.4,東,16.2,80.2,0,0,0,0
120,2019-10-14T01:59:00,0.6,北東,1.4,東,16.2,79.9,0,0,0,0
121,2019-10-14T02:00:00,0.5,北東,1.4,東,16.2,79.5,0,0,0,0
122,2019-10-14T02:01:00,0.4,北東,1.2,北東,16.1,79.6,0,0,0,0
123,2019-10-14T02:02:00,0.4,北東,1.2,北東,16.3,80.4,0,0,0,0
124,2019-10-14T02:03:00,0.4,東北東,1.2,北東,16.2,80.1,0,0,0,0
125,2019-10-14T02:04:00,0.4,東北東,1.2,北東,16.2,80.2,0,0,0,0
126,2019-10-14T02:05:00,0.4,東北東,1,東北東,16.2,80.6,0,0,0,0
127,2019-10-14T02:06:00,0.4,東北東,0.9,北東,16.2,81.1,0,0,0,0
128,2019-10-14T02:07:00,0.3,東北東,0.9,北東,16.1,81.2,0,0,0,0
129,2019-10-14T02:08:00,0.3,東北東,0.9,北東,16,80.8,0,0,0,0
130,2019-10-14T02:09:00,0.3,東北東,0.9,北東,16,81,0,0,0,0
131,2019-10-14T02:10:00,0.3,東北東,0.9,北東,16.1,81.4,0,0,0,0
132,2019-10-14T02:11:00,0.4,東,0.9,北東,16,81.1,0,0,0,0
133,2019-10-14T02:12:00,0.4,東,0.9,北東,16,81.3,0,0,0,0
134,2019-10-14T02:13:00,0.4,東南東,0.9,北東,16.1,81.5,0,0,0,0
135,2019-10-14T02:14:00,0.3,東南東,0.9,北東,16.1,81.4,0,0,0,0
136,2019-10-14T02:15:00,0.3,東南東,0.8,南南東,16.1,81.4,0,0,0,0
137,2019-10-14T02:16:00,0.2,静穏,0.8,南南東,16.1,81.5,0,0,0,0
138,2019-10-14T02:17:00,0.2,静穏,0.8,南南東,16.2,81.5,0,0,0,0
139,2019-10-14T02:18:00,0.2,静穏,0.8,南南東,16.1,80,0,0,0,0
140,2019-10-14T02:19:00,0.3,南東,0.8,南南東,16.2,79.8,0,0,0,0
141,2019-10-14T02:20:00,0.3,東南東,0.8,南南東,16.1,79,0,0,0,0
142,2019-10-14T02:21:00,0.3,東南東,1.1,南南東,16.1,77.2,0,0,0,0
143,2019-10-14T02:22:00,0.3,東南東,1.1,南南東,16.2,76.3,0,0,0,0
144,2019-10-14T02:23:00,0.4,南東,1.1,南南東,16.2,76.7,0,0,0,0
145,2019-10-14T02:24:00,0.4,南東,1.3,東南東,16.3,77.5,0,0,0,0
146,2019-10-14T02:25:00,0.5,東南東,1.3,東南東,16.2,77,0,0,0,0
147,2019-10-14T02:26:00,0.6,東南東,1.3,東南東,16.3,76.5,0,0,0,0
148,2019-10-14T02:27:00,0.6,東南東,1.3,東南東,16.2,76.6,0,0,0,0
149,2019-10-14T02:28:00,0.7,東,1.3,東南東,16.4,77,0,0,0,0
150,2019-10-14T02:29:00,0.7,東,1.3,東南東,16.4,77.1,0,0,0,0
151,2019-10-14T02:30:00,0.7,東,1.3,東南東,16.2,77.4,0,0,0,0
152,2019-10-14T02:31:00,0.7,東,1.3,東南東,16.2,77.8,0,0,0,0
153,2019-10-14T02:32:00,0.6,東北東,1.3,東南東,16.3,78.1,0,0,0,0
154,2019-10-14T02:33:00,0.6,東北東,1.3,東南東,16.3,78.7,0,0,0,0
155,2019-10-14T02:34:00,0.5,東北東,1.2,北北東,16.2,78.8,0,0,0,0
156,2019-10-14T02:35:00,0.5,北東,1.2,北北東,16.2,79.1,0,0,0,0
157,2019-10-14T02:36:00,0.5,北東,1.2,北北東,16.1,79.3,0,0,0,0
158,2019-10-14T02:37:00,0.4,北東,1.2,北北東,16.1,79.6,0,0,0,0
159,2019-10-14T02:38:00,0.4,北東,1.1,北東,16.2,79.8,0,0,0,0
160,2019-10-14T02:39:00,0.5,北東,1.3,東北東,16.1,79.9,0,0,0,0
161,2019-10-14T02:40:00,0.5,北東,1.3,東北東,16.1,80.4,0,0,0,0
162,2019-10-14T02:41:00,0.5,北東,1.3,東北東,16.1,80.9,0,0,0,0
163,2019-10-14T02:42:00,0.5,東北東,1.3,東北東,16.1,81,0,0,0,0
164,2019-10-14T02:43:00,0.6,東北東,1.3,東北東,16.1,80.8,0,0,0,0
165,2019-10-14T02:44:00,0.7,東北東,1.5,東北東,16.1,80.8,0,0,0,0
166,2019-10-14T02:45:00,0.7,東北東,1.5,東北東,16,80.4,0,0,0,0
167,2019-10-14T02:46:00,0.8,東北東,1.5,東北東,16,80,0,0,0,0
168,2019-10-14T02:47:00,0.8,東北東,1.5,東北東,16,79.2,0,0,0,0
169,2019-10-14T02:48:00,0.8,東北東,1.5,東北東,16.1,79,0,0,0,0
170,2019-10-14T02:49:00,0.8,東北東,1.5,東北東,16.1,78.7,0,0,0,0
171,2019-10-14T02:50:00,0.8,東北東,1.5,東北東,16,78.3,0,0,0,0
172,2019-10-14T02:51:00,0.7,東北東,1.5,東北東,16.1,78.4,0,0,0,0
173,2019-10-14T02:52:00,0.7,東,1.5,東北東,16,78.2,0,0,0,0
174,2019-10-14T02:53:00,0.7,東,1.5,東北東,16,78.5,0,0,0,0
175,2019-10-14T02:54:00,0.6,東,1.4,東北東,16.2,78.5,0,0,0,0
176,2019-10-14T02:55:00,0.5,東南東,1.4,東北東,16.3,78.3,0,0,0,0
177,2019-10-14T02:56:00,0.4,東南東,1.2,北東,16.1,77.8,0,0,0,0
178,2019-10-14T02:57:00,0.4,南東,1,東,16,78.2,0,0,0,0
179,2019-10-14T02:58:00,0.3,南東,1,東,16.1,78.6,0,0,0,0
180,2019-10-14T02:59:00,0.2,静穏,0.8,南東,16.1,78.6,0,0,0,0
181,2019-10-14T03:00:00,0.2,静穏,0.8,南東,16.2,78.5,0,0,0,0
182,2019-10-14T03:01:00,0.2,静穏,0.8,南東,16.3,78.4,0,0,0,0
183,2019-10-14T03:02:00,0.2,静穏,0.8,南東,16.1,78.8,0,0,0,0
184,2019-10-14T03:03:00,0.1,静穏,0.6,西北西,16.1,79.8,0,0,0,0
185,2019-10-14T03:04:00,0.1,静穏,0.6,西北西,16.1,80.2,0,0,0,0
186,2019-10-14T03:05:00,0.1,静穏,0.6,西北西,16.1,80.5,0,0,0,0
187,2019-10-14T03:06:00,0.1,静穏,0.7,東北東,16.2,80.5,0,0,0,0
188,2019-10-14T03:07:00,0.2,静穏,0.7,東北東,16.1,80.5,0,0,0,0
189,2019-10-14T03:08:00,0.2,静穏,0.7,東北東,16.1,80.6,0,0,0,0
190,2019-10-14T03:09:00,0.2,静穏,0.7,東北東,16,80.8,0,0,0,0
191,2019-10-14T03:10:00,0.2,静穏,0.7,東北東,16,81,0,0,0,0
192,2019-10-14T03:11:00,0.2,静穏,0.7,東北東,16,81.1,0,0,0,0
193,2019-10-14T03:12:00,0.2,静穏,0.7,東北東,15.9,81.2,0,0,0,0
194,2019-10-14T03:13:00,0.2,静穏,0.7,東北東,15.9,81,0,0,0,0
195,2019-10-14T03:14:00,0.2,静穏,0.7,東北東,16,80.7,0,0,0,0
196,2019-10-14T03:15:00,0.2,静穏,0.7,東北東,16,80.8,0,0,0,0
197,2019-10-14T03:16:00,0.2,静穏,0.7,東,16.1,80.6,0,0,0,0
198,2019-10-14T03:17:00,0.2,静穏,0.6,南南東,16.1,80.4,0,0,0,0
199,2019-10-14T03:18:00,0.1,静穏,0.6,南南東,16,80.3,0,0,0,0
200,2019-10-14T03:19:00,0.1,静穏,0.6,南南東,16.1,80.6,0,0,0,0
201,2019-10-14T03:20:00,0.1,静穏,0.5,南東,16.1,80.7,0,0,0,0
202,2019-10-14T03:21:00,0.1,静穏,1.4,北西,16,80.8,0,0,0,0
203,2019-10-14T03:22:00,0.3,南,1.5,西北西,16,80.9,0,0,0,0
204,2019-10-14T03:23:00,0.4,南南西,2,西北西,16,81.5,0,0,0,0
205,2019-10-14T03:24:00,0.6,西南西,2.8,西,15.9,82.8,0,0,0,0
206,2019-10-14T03:25:00,0.8,西,2.8,西,15.9,82.8,0,0,0,0
207,2019-10-14T03:26:00,1,西北西,2.8,西,15.9,82.9,0,0,0,0
208,2019-10-14T03:27:00,1.2,西北西,2.8,西,15.9,83.4,0,0,0,0
209,2019-10-14T03:28:00,1.3,西北西,2.8,西,15.8,83.6,0,0,0,0
210,2019-10-14T03:29:00,1.4,西北西,2.8,西,15.8,84,0,0,0,0
211,2019-10-14T03:30:00,1.5,西北西,2.8,西,15.7,84.5,0,0,0,0
212,2019-10-14T03:31:00,1.4,西北西,2.8,西,15.7,84.9,0,0,0,0
213,2019-10-14T03:32:00,1.4,西北西,2.8,西,15.8,85.4,0,0,0,0
214,2019-10-14T03:33:00,1.2,西北西,2.8,西,15.8,85.8,0,0,0,0
215,2019-10-14T03:34:00,1.1,北西,2.5,西,15.9,85.8,0,0,0,0
216,2019-10-14T03:35:00,1,北西,2.3,西北西,15.9,85.8,0,0,0,0
217,2019-10-14T03:36:00,0.9,北北西,2.3,西北西,15.8,85.5,0,0,0,0
218,2019-10-14T03:37:00,0.8,北北西,2,西北西,15.7,85.7,0,0,0,0
219,2019-10-14T03:38:00,0.8,北北西,1.8,北西,15.6,86.2,0,0,0,0
220,2019-10-14T03:39:00,0.8,北北西,2,西北西,15.5,86.7,0,0,0,0
221,2019-10-14T03:40:00,0.8,北西,2,西北西,15.5,86.8,0.5,0.5,0.5,0.5
222,2019-10-14T03:41:00,0.9,北西,2,西北西,15.5,87.3,0.5,0.5,0.5,0.5
223,2019-10-14T03:42:00,0.9,北西,2,西北西,15.5,86.9,0.5,0.5,0.5,0.5
224,2019-10-14T03:43:00,0.9,西北西,2,西北西,15.4,87.9,0.5,0.5,0.5,0.5
225,2019-10-14T03:44:00,0.8,西北西,2,西北西,15.3,89,0.5,0.5,0.5,0.5
226,2019-10-14T03:45:00,0.8,西北西,2,西北西,15.4,90.3,0.5,0.5,0.5,0.5
227,2019-10-14T03:46:00,0.8,西北西,2,西北西,15.4,91.2,0.5,0.5,0.5,0.5
228,2019-10-14T03:47:00,0.8,西北西,2,西北西,15.4,91.6,0.5,0.5,0.5,0.5
229,2019-10-14T03:48:00,0.7,北西,2,西北西,15.4,91.4,0.5,0.5,0.5,0.5
230,2019-10-14T03:49:00,0.6,北西,2,西,15.4,91.8,0.5,0.5,0.5,0.5
231,2019-10-14T03:50:00,0.5,北西,1.9,北西,15.3,90.9,0,0.5,0.5,0.5
232,2019-10-14T03:51:00,0.5,北西,1.3,北北西,15.2,90.4,0,0.5,0.5,0.5
233,2019-10-14T03:52:00,0.6,北北西,1.7,北北西,15.2,91.1,0,0.5,0.5,0.5
234,2019-10-14T03:53:00,0.6,北北西,1.7,北北西,15.2,91.7,0,0.5,0.5,0.5
235,2019-10-14T03:54:00,0.6,北北西,1.7,北北西,15.2,92,0,0.5,0.5,0.5
236,2019-10-14T03:55:00,0.6,北西,2.1,西,15.2,92.2,0,0.5,0.5,0.5
237,2019-10-14T03:56:00,0.6,北西,2.1,西,15.2,91.6,0,0.5,0.5,0.5
238,2019-10-14T03:57:00,0.6,北西,2.1,西,15.1,91.2,0,0.5,0.5,0.5
239,2019-10-14T03:58:00,0.6,北西,2.1,西,15.2,92.7,0,0.5,0.5,0.5
240,2019-10-14T03:59:00,0.6,北西,2.1,西,15.2,92.5,0,0.5,0.5,0.5
241,2019-10-14T04:00:00,0.6,北西,2.1,西,15.2,92.3,0,0.5,0.5,0.5
242,2019-10-14T04:01:00,0.6,北西,2.1,西,15.2,92.7,0,0.5,0.5,0.5
243,2019-10-14T04:02:00,0.6,北西,2.1,西,15.2,92.8,0,0.5,0.5,0.5
244,2019-10-14T04:03:00,0.5,北西,2.1,西,15.2,92.5,0,0.5,0.5,0.5
245,2019-10-14T04:04:00,0.5,北西,2.1,西,15.2,92.7,0,0.5,0.5,0.5
246,2019-10-14T04:05:00,0.4,北西,1.4,北西,15.2,92.9,0,0.5,0.5,0.5
247,2019-10-14T04:06:00,0.4,北西,1.4,北西,15.2,92.9,0,0.5,0.5,0.5
248,2019-10-14T04:07:00,0.4,北西,1.4,北西,15.2,92.2,0,0.5,0.5,0.5
249,2019-10-14T04:08:00,0.4,北西,1.4,北西,15.1,91.7,0,0.5,0.5,0.5
250,2019-10-14T04:09:00,0.3,北西,1.4,北西,15.2,92.2,0,0.5,0.5,0.5
251,2019-10-14T04:10:00,0.3,西北西,1.4,北西,15.1,92,0,0.5,0.5,0.5
252,2019-10-14T04:11:00,0.3,西北西,1.4,北西,15.1,91.5,0,0.5,0.5,0.5
253,2019-10-14T04:12:00,0.3,西北西,1,西,15.1,91.4,0,0.5,0.5,0.5
254,2019-10-14T04:13:00,0.3,西,1,西,15.1,91.6,0,0.5,0.5,0.5
255,2019-10-14T04:14:00,0.3,西,1,西,15.2,92,0,0.5,0.5,0.5
256,2019-10-14T04:15:00,0.4,西,1.1,西,15.2,91.3,0,0.5,0.5,0.5
257,2019-10-14T04:16:00,0.4,西,1.1,西,15.2,91.3,0,0.5,0.5,0.5
258,2019-10-14T04:17:00,0.4,西,1.1,西,15.2,91.6,0,0.5,0.5,0.5
259,2019-10-14T04:18:00,0.4,西,1.1,西,15.2,91.9,0,0.5,0.5,0.5
260,2019-10-14T04:19:00,0.4,西,1.1,西,15.2,92.1,0,0.5,0.5,0.5
261,2019-10-14T04:20:00,0.4,西,1.1,西,15.2,92.2,0,0.5,0.5,0.5
262,2019-10-14T04:21:00,0.4,西南西,1.1,西,15.2,92.7,0,0.5,0.5,0.5
263,2019-10-14T04:22:00,0.4,南南西,1.1,西,15.2,93,0,0.5,0.5,0.5
264,2019-10-14T04:23:00,0.4,南南東,1.2,東南東,15.2,93.4,0,0.5,0.5,0.5
265,2019-10-14T04:24:00,0.5,南東,1.6,南東,15.1,93.2,0,0.5,0.5,0.5
266,2019-10-14T04:25:00,0.5,南東,1.6,南東,15,93.1,0,0.5,0.5,0.5
267,2019-10-14T04:26:00,0.5,南東,1.6,南東,15,93.5,0,0.5,0.5,0.5
268,2019-10-14T04:27:00,0.5,南東,1.6,南東,15,93.9,0,0.5,0.5,0.5
269,2019-10-14T04:28:00,0.5,南東,1.6,南東,15.1,94,0,0.5,0.5,0.5
270,2019-10-14T04:29:00,0.5,南南東,1.6,南東,15.1,94.3,0,0.5,0.5,0.5
271,2019-10-14T04:30:00,0.5,南,1.6,南東,15.2,94.3,0,0.5,0.5,0.5
272,2019-10-14T04:31:00,0.4,南,1.6,南東,15,93.9,0,0.5,0.5,0.5
273,2019-10-14T04:32:00,0.4,南南西,1.6,南東,14.9,93.4,0,0.5,0.5,0.5
274,2019-10-14T04:33:00,0.3,南南西,1.6,南東,14.9,93.7,0,0.5,0.5,0.5
275,2019-10-14T04:34:00,0.3,南南西,1.4,南東,15,94.3,0,0.5,0.5,0.5
276,2019-10-14T04:35:00,0.2,静穏,0.7,南,15,94.4,0,0.5,0.5,0.5
277,2019-10-14T04:36:00,0.3,南南西,0.8,南南東,14.9,94.4,0,0.5,0.5,0.5
278,2019-10-14T04:37:00,0.3,南南西,0.8,南南東,15,94.4,0,0.5,0.5,0.5
279,2019-10-14T04:38:00,0.4,南,1.2,南,15,94.2,0,0.5,0.5,0.5
280,2019-10-14T04:39:00,0.5,南,1.5,南,15,94,0,0.5,0.5,0.5
281,2019-10-14T04:40:00,0.5,南,1.5,南,15,94.1,0,0,0.5,0.5
282,2019-10-14T04:41:00,0.5,南,1.5,南,15,94.2,0,0,0.5,0.5
283,2019-10-14T04:42:00,0.6,南,1.7,南南東,15,94.5,0,0,0.5,0.5
284,2019-10-14T04:43:00,0.6,南,1.7,南南東,15,94.5,0,0,0.5,0.5
285,2019-10-14T04:44:00,0.7,南,1.7,南南東,14.9,94.2,0,0,0.5,0.5
286,2019-10-14T04:45:00,0.7,南,1.7,南南東,14.9,93.9,0,0,0.5,0.5
287,2019-10-14T04:46:00,0.7,南,1.7,南南東,14.9,93.9,0,0,0.5,0.5
288,2019-10-14T04:47:00,0.7,南,1.7,南南東,14.9,93.4,0,0,0.5,0.5
289,2019-10-14T04:48:00,0.6,南,1.7,南南東,15,93.8,0,0,0.5,0.5
290,2019-10-14T04:49:00,0.6,南,1.7,南南東,15,94.1,0,0,0.5,0.5
291,2019-10-14T04:50:00,0.6,南,2,南東,15,94.2,0,0,0.5,0.5
292,2019-10-14T04:51:00,0.7,南南東,2,南東,15.1,94.4,0,0,0.5,0.5
293,2019-10-14T04:52:00,0.7,南南東,2,南東,15,94.3,0,0,0.5,0.5
294,2019-10-14T04:53:00,0.7,南東,2,南東,15.1,94.6,0,0,0.5,0.5
295,2019-10-14T04:54:00,0.7,南東,2,南東,15.1,95.1,0.5,0.5,1,1
296,2019-10-14T04:55:00,0.7,東南東,2,南東,15.1,95.3,0.5,0.5,1,1
297,2019-10-14T04:56:00,0.6,東南東,2,南東,15.1,95.3,0.5,0.5,1,1
298,2019-10-14T04:57:00,0.5,東南東,2,南東,15.1,95.2,0.5,0.5,1,1
299,2019-10-14T04:58:00,0.6,南東,2,南東,15,95,0.5,0.5,1,1
300,2019-10-14T04:59:00,0.5,南東,2,南東,15,94.7,0.5,0.5,1,1
301,2019-10-14T05:00:00,0.4,南東,1.7,東北東,15,94.8,0.5,0.5,1,1
302,2019-10-14T05:01:00,0.3,南南東,1.7,東北東,15,94.9,0.5,0.5,1,1
303,2019-10-14T05:02:00,0.2,静穏,1.7,東北東,15,94.8,0.5,0.5,1,1
304,2019-10-14T05:03:00,0.2,静穏,1,東,14.9,94.5,0.5,0.5,1,1
305,2019-10-14T05:04:00,0.2,静穏,0.7,西南西,15,94.8,0,0.5,1,1
306,2019-10-14T05:05:00,0.2,静穏,1.1,南西,15,94.8,0,0.5,1,1
307,2019-10-14T05:06:00,0.3,南西,1.1,南西,14.9,94.6,0,0.5,1,1
308,2019-10-14T05:07:00,0.2,静穏,1.1,南西,14.9,94.7,0,0.5,1,1
309,2019-10-14T05:08:00,0.2,静穏,1.1,南西,15,94.9,0,0.5,1,1
310,2019-10-14T05:09:00,0.2,静穏,1.1,南西,15,95.2,0,0.5,1,1
311,2019-10-14T05:10:00,0.3,西,1.1,南西,15.1,94.9,0,0.5,1,1
312,2019-10-14T05:11:00,0.3,西,1.1,南西,15.1,95.1,0,0.5,1,1
313,2019-10-14T05:12:00,0.3,西,1.1,南西,15.1,95.2,0,0.5,1,1
314,2019-10-14T05:13:00,0.3,西北西,1.1,南西,15,95,0,0.5,1,1
315,2019-10-14T05:14:00,0.3,西北西,1.1,南西,15,95,0,0.5,1,1
316,2019-10-14T05:15:00,0.3,西北西,1,西北西,15,94.8,0,0.5,1,1
317,2019-10-14T05:16:00,0.3,北西,1,西北西,15,94.9,0,0.5,1,1
318,2019-10-14T05:17:00,0.4,北西,1.1,西,15,95,0,0.5,1,1
319,2019-10-14T05:18:00,0.5,西北西,1.2,西,15,94.7,0,0.5,1,1
320,2019-10-14T05:19:00,0.6,西北西,1.2,西,15,94.4,0,0.5,1,1
321,2019-10-14T05:20:00,0.6,西北西,1.2,西,15,94.6,0,0.5,1,1
322,2019-10-14T05:21:00,0.7,西北西,1.3,西,15,94.7,0,0.5,1,1
323,2019-10-14T05:22:00,0.7,西,1.3,西,15,95,0,0.5,1,1
324,2019-10-14T05:23:00,0.7,西,1.3,西,15,95,0,0.5,1,1
325,2019-10-14T05:24:00,0.7,西,1.3,西,15,95.1,0,0.5,1,1
326,2019-10-14T05:25:00,0.7,西,1.3,西,14.9,95.1,0,0.5,1,1
327,2019-10-14T05:26:00,0.7,西,1.3,西,14.9,95,0,0.5,1,1
328,2019-10-14T05:27:00,0.6,西,1.3,西,14.9,95.1,0,0.5,1,1
329,2019-10-14T05:28:00,0.5,西,1.3,西,15,95.3,0,0.5,1,1
330,2019-10-14T05:29:00,0.5,西北西,1.3,西,15,95.3,0,0.5,1,1
331,2019-10-14T05:30:00,0.5,西北西,1.3,西,15,95.3,0,0.5,1,1
332,2019-10-14T05:31:00,0.4,西北西,1,西,15,95.3,0,0.5,1,1
333,2019-10-14T05:32:00,0.4,西北西,1,西,15,95.2,0,0.5,1,1
334,2019-10-14T05:33:00,0.3,西北西,1,西,15,95.2,0,0.5,1,1
335,2019-10-14T05:34:00,0.3,西北西,0.9,西北西,15,95.2,0,0.5,1,1
336,2019-10-14T05:35:00,0.3,西北西,0.9,西北西,14.9,95.3,0,0.5,1,1
337,2019-10-14T05:36:00,0.3,西北西,0.9,西北西,15,95.4,0,0.5,1,1
338,2019-10-14T05:37:00,0.4,西北西,0.9,西北西,14.9,95.2,0,0.5,1,1
339,2019-10-14T05:38:00,0.4,西北西,1.1,西南西,14.9,95.2,0,0.5,1,1
340,2019-10-14T05:39:00,0.4,西,1.1,西南西,14.9,95.2,0,0.5,1,1
341,2019-10-14T05:40:00,0.4,西,1.3,西北西,15,95.4,0,0.5,1,1
342,2019-10-14T05:41:00,0.4,西,1.3,西北西,15,95.3,0,0.5,1,1
343,2019-10-14T05:42:00,0.5,西,1.3,西北西,15,95.3,0,0.5,1,1
344,2019-10-14T05:43:00,0.5,西,1.3,西北西,14.9,95.2,0,0.5,1,1
345,2019-10-14T05:44:00,0.5,西南西,1.3,西北西,14.9,95.1,0,0.5,1,1
346,2019-10-14T05:45:00,0.5,西南西,1.3,西北西,14.9,95.2,0,0.5,1,1
347,2019-10-14T05:46:00,0.4,西南西,1.3,西北西,14.9,95.1,0,0.5,1,1
348,2019-10-14T05:47:00,0.4,西南西,1.3,西北西,14.9,95.2,0,0.5,1,1
349,2019-10-14T05:48:00,0.3,西南西,1.3,西北西,14.9,95.2,0,0.5,1,1
350,2019-10-14T05:49:00,0.3,西南西,1.3,西北西,14.9,95.2,0,0.5,1,1
351,2019-10-14T05:50:00,0.2,静穏,0.6,南南西,14.9,95.2,0,0.5,1,1
352,2019-10-14T05:51:00,0.2,静穏,0.6,南南西,15,95.2,0,0.5,1,1
353,2019-10-14T05:52:00,0.2,静穏,0.6,南南西,15,95.3,0,0.5,1,1
354,2019-10-14T05:53:00,0.2,静穏,0.7,西,15,95.1,0,0.5,1,1
355,2019-10-14T05:54:00,0.2,静穏,0.8,西,14.9,94.8,0,0,1,1
356,2019-10-14T05:55:00,0.2,静穏,0.8,西,15,95,0,0,1,1
357,2019-10-14T05:56:00,0.2,静穏,0.8,西,15,95,0,0,1,1
358,2019-10-14T05:57:00,0.2,静穏,0.8,西,15.1,95.2,0,0,1,1
359,2019-10-14T05:58:00,0.2,静穏,0.8,西,15,94.9,0,0,1,1
360,2019-10-14T05:59:00,0.2,静穏,0.8,西,14.9,94.5,0,0,1,1
361,2019-10-14T06:00:00,0.2,静穏,0.8,西,14.9,94.6,0,0,1,1
362,2019-10-14T06:01:00,0.2,静穏,0.8,西,14.9,94.1,0,0,1,1
363,2019-10-14T06:02:00,0.2,静穏,0.8,西,15,95,0,0,1,1
364,2019-10-14T06:03:00,0.1,静穏,0.8,西,15.1,95.1,0,0,1,1
365,2019-10-14T06:04:00,0.1,静穏,0.7,西北西,15.1,95.2,0,0,1,1
366,2019-10-14T06:05:00,0.1,静穏,0.5,北北西,15,95,0,0,1,1
367,2019-10-14T06:06:00,0.1,静穏,0.7,南,15,94.7,0,0,1,1
368,2019-10-14T06:07:00,0.1,静穏,0.7,南,15,94.5,0,0,1,1
369,2019-10-14T06:08:00,0.1,静穏,0.8,南南西,15,94.7,0,0,1,1
370,2019-10-14T06:09:00,0.2,静穏,0.9,南南西,15,94.5,0,0,1,1
371,2019-10-14T06:10:00,0.2,静穏,0.9,南南西,15,94.3,0,0,1,1
372,2019-10-14T06:11:00,0.3,南西,1,南南西,15,94.5,0,0,1,1
373,2019-10-14T06:12:00,0.3,南西,1,南南西,15,94.1,0,0,1,1
374,2019-10-14T06:13:00,0.4,南西,1.3,南,15,94,0,0,1,1
375,2019-10-14T06:14:00,0.5,南西,1.3,南,14.9,94,0,0,1,1
376,2019-10-14T06:15:00,0.5,南西,1.3,南,14.9,94.1,0,0,1,1
377,2019-10-14T06:16:00,0.5,南西,1.3,南,14.9,94.5,0,0,1,1
378,2019-10-14T06:17:00,0.5,南西,1.3,南,15,94.6,0,0,1,1
379,2019-10-14T06:18:00,0.5,南西,1.3,南,14.9,94.5,0,0,1,1
380,2019-10-14T06:19:00,0.5,西南西,1.3,南,15,94.7,0,0,1,1
381,2019-10-14T06:20:00,0.5,西南西,1.3,南,15,94.8,0,0,1,1
382,2019-10-14T06:21:00,0.5,西南西,1.3,南,15,94.7,0,0,1,1
383,2019-10-14T06:22:00,0.4,西南西,1.3,南,15,94.4,0,0,1,1
384,2019-10-14T06:23:00,0.4,西南西,1,南南西,14.9,94.2,0,0,1,1
385,2019-10-14T06:24:00,0.4,西南西,0.9,西北西,15,94.6,0,0,1,1
386,2019-10-14T06:25:00,0.4,西南西,0.9,西北西,15,94.7,0,0,1,1
387,2019-10-14T06:26:00,0.4,西南西,0.9,西北西,15,94.9,0,0,1,1
388,2019-10-14T06:27:00,0.4,西南西,0.9,西北西,15,95,0,0,1,1
389,2019-10-14T06:28:00,0.3,西南西,0.9,西北西,15,94.9,0,0,1,1
390,2019-10-14T06:29:00,0.3,西南西,0.7,西南西,15,95.1,0,0,1,1
391,2019-10-14T06:30:00,0.2,静穏,0.7,西南西,15.1,95.3,0,0,1,1
392,2019-10-14T06:31:00,0.2,静穏,0.7,西南西,15.2,95.4,0,0,1,1
393,2019-10-14T06:32:00,0.2,静穏,0.7,西南西,15.2,95.3,0,0,1,1
394,2019-10-14T06:33:00,0.2,静穏,0.7,西南西,15.1,95.1,0,0,1,1
395,2019-10-14T06:34:00,0.2,静穏,0.7,西南西,15.1,95.2,0,0,1,1
396,2019-10-14T06:35:00,0.2,静穏,0.7,西南西,15.2,95.4,0,0,1,1
397,2019-10-14T06:36:00,0.2,静穏,0.6,西,15.1,95.4,0,0,1,1
398,2019-10-14T06:37:00,0.1,静穏,0.5,北北西,15.2,95.4,0,0,1,1
399,2019-10-14T06:38:00,0.1,静穏,0.5,北北西,15.2,95.5,0,0,1,1
400,2019-10-14T06:39:00,0.2,静穏,0.8,北北東,15.2,95.5,0,0,1,1
401,2019-10-14T06:40:00,0.2,静穏,1.2,北北東,15.2,95.3,0,0,1,1
402,2019-10-14T06:41:00,0.3,北,1.5,東北東,15.1,95.2,0,0,1,1
403,2019-10-14T06:42:00,0.3,北,1.5,東北東,15.2,95.2,0,0,1,1
404,2019-10-14T06:43:00,0.3,北北東,1.5,東北東,15.1,95.3,0,0,1,1
405,2019-10-14T06:44:00,0.3,北北東,1.5,東北東,15.1,95.3,0,0,1,1
406,2019-10-14T06:45:00,0.3,北北東,1.5,東北東,15.1,95.2,0,0,1,1
407,2019-10-14T06:46:00,0.3,北北東,1.5,東北東,15.1,95.2,0,0,1,1
408,2019-10-14T06:47:00,0.3,北北東,1.5,東北東,15.2,95.5,0,0,1,1
409,2019-10-14T06:48:00,0.3,北東,1.5,東北東,15.2,95.5,0,0,1,1
410,2019-10-14T06:49:00,0.3,北東,1.5,東北東,15.2,95.4,0,0,1,1
411,2019-10-14T06:50:00,0.2,静穏,1.5,東北東,15.2,95.4,0,0,1,1
412,2019-10-14T06:51:00,0.2,静穏,1,北東,15.2,95.3,0,0,1,1
413,2019-10-14T06:52:00,0.1,静穏,0.7,東北東,15.2,95.3,0,0,1,1
414,2019-10-14T06:53:00,0.1,静穏,0.5,北東,15.2,95.2,0,0,1,1
415,2019-10-14T06:54:00,0.1,静穏,0.5,北東,15.2,95,0,0,1,1
416,2019-10-14T06:55:00,0.1,静穏,0.5,北東,15.2,94.9,0,0,1,1
417,2019-10-14T06:56:00,0.1,静穏,0.5,北東,15.2,94.7,0,0,1,1
418,2019-10-14T06:57:00,0.1,静穏,0.7,南,15.2,94.5,0,0,1,1
419,2019-10-14T06:58:00,0.1,静穏,0.7,南,15.2,94.7,0,0,1,1
420,2019-10-14T06:59:00,0.1,静穏,0.7,南,15.1,94.4,0,0,1,1
421,2019-10-14T07:00:00,0.1,静穏,0.7,南,15.1,94.2,0,0,1,1
422,2019-10-14T07:01:00,0.1,静穏,0.7,南,15.1,94.3,0,0,1,1